Location: Congrier
(47.8099°N, 1.1170°W)
Time: 15:42:34
(UTC+00:00)

Cosmos 1140 Rocket - Pass Details

Date: 28 January 2023
Orbit: 744 x 766 km, 74.1° (Epoch: 25 March)

Event Time Altitude Azimuth Distance (km) Brightness Sun altitude
Rises 18:03:40 0° 180° (S) 3,203 6.9 -11.1°
Reaches altitude 10° 18:06:08 10° 173° (S) 2,279 6.1 -11.5°
Maximum altitude 18:10:57 41° 104° (ESE) 1,079 3.9 -12.3°
Drops below altitude 10° 18:15:47 10° 35° (NE) 2,281 5.5 -13.1°
Enters shadow 18:15:57 - 34° (NE) 2,342 5.6 -13.1°
